Location: ?????
(42.2640°N, 43.4211°E)
Time: 14:19:34
(UTC+00:00)

Cosmos 1703 - Pass Details

Date: 07 August 2020
Orbit: 523 x 540 km, 82.5° (Epoch: 19 September)

Event Time Altitude Azimuth Distance (km) Brightness Sun altitude
Rises 00:54:40 0° 353° (N) 2,709 7.3 -12.2°
Reaches altitude 10° 00:56:51 10° 354° (N) 1,812 6.4 -11.9°
Maximum altitude 01:00:50 80° 81° (E) 554 3.4 -11.3°
Drops below altitude 10° 01:04:47 10° 169° (S) 1,791 5.7 -10.7°
Sets 01:06:55 0° 171° (S) 2,675 6.6 -10.4°
